| time (UTC) | temp F | wind direction | speed MPH | gust MPH | rain 1hr in | rain 24hr in | rain mn in | humidity % | barometer mb |
| 20260901150504 | 84 | 158 | 3.0 | 5.0 | 0.00 | 0.00 | 0.00 | 86 | 1015.9 |
| 20260901145005 | 81 | 129 | 1.0 | 3.0 | 0.00 | 0.00 | 0.00 | 88 | 1016.0 |
| 20260901143504 | 80 | 163 | 3.0 | 5.0 | 0.00 | 0.00 | 0.00 | 90 | 1016.1 |
| 20260901143004 | 79 | 136 | 2.0 | 3.0 | 0.00 | 0.00 | 0.00 | 89 | 1016.0 |
| 20260901142005 | 78 | 194 | 2.0 | 3.0 | 0.00 | 0.00 | 0.00 | 91 | 1016.4 |
| 20260901141505 | 78 | 185 | 1.0 | 3.0 | 0.00 | 0.00 | 0.00 | 93 | 1016.2 |
| 20260901140504 | 77 | 279 | 0.0 | 2.0 | 0.00 | 0.00 | 0.00 | 92 | 1016.5 |
| 20260901134004 | 75 | 192 | 1.0 | 2.0 | 0.00 | 0.00 | 0.00 | 96 | 1016.7 |
| 20260901133505 | 74 | 184 | 1.0 | 3.0 | 0.00 | 0.00 | 0.00 | 96 | 1016.8 |
| 20260901132505 | 74 | 77 | 1.0 | 2.0 | 0.00 | 0.00 | 0.00 | 96 | 1016.7 |
| 20260901131505 | 72 | 50 | 0.0 | 1.0 | 0.00 | 0.00 | 0.00 | 95 | 1016.6 |
| 20260901131005 | 71 | 0 | 0.0 | 0.0 | 0.00 | 0.00 | 0.00 | 95 | 1016.6 |
| 20260901130505 | 71 | 0 | 0.0 | 0.0 | 0.00 | 0.00 | 0.00 | 95 | 1016.7 |
| 20260901125506 | 71 | 0 | 0.0 | 0.0 | 0.00 | 0.00 | 0.00 | 95 | 1016.6 |
| 20260901124505 | 71 | 0 | 0.0 | 0.0 | 0.00 | 0.00 | 0.00 | 95 | 1016.4 |
| 20260901123504 | 71 | 0 | 0.0 | 0.0 | 0.00 | 0.00 | 0.00 | 95 | 1016.4 |
| 20260901123005 | 71 | 0 | 0.0 | 0.0 | 0.00 | 0.00 | 0.00 | 95 | 1016.4 |
| 20260901122005 | 71 | 0 | 0.0 | 0.0 | 0.00 | 0.00 | 0.00 | 95 | 1016.3 |
| 20260901121504 | 71 | 0 | 0.0 | 0.0 | 0.00 | 0.00 | 0.00 | 95 | 1016.4 |
| 20260901120004 | 71 | 0 | 0.0 | 0.0 | 0.00 | 0.00 | 0.00 | 95 | 1016.3 |
| 20260901115505 | 71 | 0 | 0.0 | 0.0 | 0.00 | 0.00 | 0.00 | 95 | 1016.2 |
| 20260901112504 | 71 | 0 | 0.0 | 0.0 | 0.00 | 0.00 | 0.00 | 95 | 1015.7 |
| 20260901112004 | 71 | 0 | 0.0 | 2.0 | 0.00 | 0.00 | 0.00 | 95 | 1015.8 |
| 20260901111504 | 71 | 176 | 2.0 | 2.0 | 0.00 | 0.00 | 0.00 | 95 | 1015.9 |
| 20260901111004 | 71 | 176 | 2.0 | 2.0 | 0.00 | 0.00 | 0.00 | 95 | 1015.8 |
| 20260901104504 | 71 | 243 | 1.0 | 2.0 | 0.00 | 0.00 | 0.00 | 95 | 1015.5 |
| 20260901103004 | 71 | 243 | 1.0 | 2.0 | 0.00 | 0.00 | 0.00 | 95 | 1015.4 |
| 20260901102504 | 71 | 243 | 0.0 | 0.0 | 0.00 | 0.00 | 0.00 | 95 | 1015.4 |
| 20260901102004 | 71 | 243 | 0.0 | 0.0 | 0.00 | 0.00 | 0.00 | 95 | 1015.3 |
| 20260901101004 | 72 | 243 | 1.0 | 2.0 | 0.00 | 0.00 | 0.00 | 95 | 1015.2 |
| 20260901095005 | 72 | 243 | 0.0 | 1.0 | 0.00 | 0.00 | 0.00 | 95 | 1015.4 |
| 20260901094004 | 72 | 243 | 0.0 | 2.0 | 0.00 | 0.00 | 0.00 | 95 | 1015.2 |
| 20260901093504 | 72 | 243 | 0.0 | 1.0 | 0.00 | 0.00 | 0.00 | 95 | 1015.1 |
| 20260901092004 | 73 | 243 | 1.0 | 1.0 | 0.00 | 0.00 | 0.00 | 95 | 1015.2 |
| 20260901090504 | 73 | 243 | 1.0 | 2.0 | 0.00 | 0.00 | 0.00 | 94 | 1015.3 |
| 20260901085504 | 73 | 243 | 2.0 | 2.0 | 0.00 | 0.00 | 0.00 | 95 | 1015.3 |
| 20260901085004 | 73 | 243 | 2.0 | 2.0 | 0.00 | 0.00 | 0.00 | 95 | 1015.3 |
| 20260901084504 | 73 | 243 | 1.0 | 2.0 | 0.00 | 0.00 | 0.00 | 95 | 1015.2 |
| 20260901083504 | 73 | 243 | 0.0 | 0.0 | 0.00 | 0.00 | 0.00 | 94 | 1015.2 |
| 20260901082504 | 73 | 243 | 0.0 | 0.0 | 0.00 | 0.00 | 0.00 | 94 | 1015.1 |
| 20260901080004 | 74 | 243 | 0.0 | 1.0 | 0.00 | 0.00 | 0.00 | 94 | 1015.4 |
| 20260901073004 | 73 | 242 | 1.0 | 2.0 | 0.00 | 0.00 | 0.00 | 94 | 1015.4 |
| 20260901072504 | 74 | 243 | 1.0 | 1.0 | 0.00 | 0.00 | 0.00 | 94 | 1015.3 |
| 20260901071503 | 74 | 243 | 1.0 | 1.0 | 0.00 | 0.00 | 0.00 | 94 | 1015.3 |
| 20260901070504 | 74 | 243 | 1.0 | 1.0 | 0.00 | 0.00 | 0.00 | 94 | 1015.3 |
| 20260901070004 | 74 | 243 | 1.0 | 1.0 | 0.00 | 0.00 | 0.00 | 93 | 1015.3 |
| 20260901064504 | 75 | 242 | 2.0 | 2.0 | 0.00 | 0.00 | 0.00 | 93 | 1015.3 |
| 20260901064004 | 75 | 243 | 1.0 | 2.0 | 0.00 | 0.00 | 0.00 | 93 | 1015.3 |
| 20260901063504 | 75 | 243 | 1.0 | 1.0 | 0.00 | 0.00 | 0.00 | 93 | 1015.3 |
| 20260901062504 | 75 | 243 | 1.0 | 2.0 | 0.00 | 0.00 | 0.00 | 93 | 1015.4 |
| 20260901062003 | 75 | 243 | 1.0 | 2.0 | 0.00 | 0.00 | 0.00 | 93 | 1015.5 |
| 20260901061504 | 75 | 192 | 1.0 | 2.0 | 0.00 | 0.00 | 0.00 | 93 | 1015.5 |
| 20260901055504 | 75 | 187 | 2.0 | 3.0 | 0.00 | 0.00 | 0.00 | 93 | 1015.3 |
| 20260901054504 | 75 | 187 | 2.0 | 3.0 | 0.00 | 0.00 | 0.00 | 93 | 1015.3 |
| 20260901054004 | 75 | 187 | 2.0 | 3.0 | 0.00 | 0.00 | 0.00 | 93 | 1015.3 |
| 20260901053504 | 75 | 187 | 2.0 | 3.0 | 0.00 | 0.00 | 0.00 | 93 | 1015.1 |
| 20260901053004 | 75 | 187 | 2.0 | 3.0 | 0.00 | 0.00 | 0.00 | 93 | 1015.0 |
| 20260901052504 | 75 | 187 | 2.0 | 3.0 | 0.00 | 0.00 | 0.00 | 93 | 1015.0 |
| 20260901052004 | 75 | 217 | 2.0 | 3.0 | 0.00 | 0.00 | 0.00 | 93 | 1015.1 |
| 20260901051504 | 75 | 216 | 1.0 | 2.0 | 0.00 | 0.00 | 0.00 | 93 | 1015.2 |
| 20260901050504 | 76 | 217 | 1.0 | 1.0 | 0.00 | 0.00 | 0.00 | 92 | 1015.1 |
| 20260901050004 | 76 | 217 | 1.0 | 2.0 | 0.00 | 0.00 | 0.00 | 92 | 1014.9 |
| 20260901045504 | 76 | 217 | 1.0 | 2.0 | 0.00 | 0.00 | 0.00 | 92 | 1014.9 |
| 20260901045004 | 76 | 169 | 1.0 | 1.0 | 0.00 | 0.00 | 0.00 | 93 | 1014.9 |
| 20260901043006 | 75 | 169 | 0.0 | 1.0 | 0.00 | 0.00 | 0.00 | 93 | 1014.8 |
| 20260901042006 | 75 | 169 | 1.0 | 2.0 | 0.00 | 0.00 | 0.00 | 93 | 1014.8 |
| 20260901040506 | 76 | 160 | 2.0 | 2.0 | 0.00 | 0.00 | 0.00 | 92 | 1014.8 |
| 20260901040006 | 76 | 158 | 1.0 | 3.0 | 0.00 | 0.00 | 0.00 | 92 | 1014.7 |
| 20260901035506 | 76 | 158 | 2.0 | 3.0 | 0.00 | 0.00 | 0.00 | 93 | 1014.7 |
| 20260901034006 | 76 | 147 | 1.0 | 2.0 | 0.00 | 0.00 | 0.00 | 93 | 1014.7 |
| 20260901033506 | 76 | 147 | 1.0 | 2.0 | 0.00 | 0.00 | 0.00 | 93 | 1014.8 |
| 20260901032506 | 76 | 147 | 1.0 | 1.0 | 0.00 | 0.00 | 0.00 | 93 | 1014.9 |
| 20260901032006 | 77 | 147 | 0.0 | 2.0 | 0.00 | 0.00 | 0.00 | 93 | 1015.0 |
| 20260901031505 | 77 | 147 | 1.0 | 2.0 | 0.00 | 0.00 | 0.00 | 92 | 1014.9 |
| 20260901030506 | 76 | 171 | 0.0 | 1.0 | 0.00 | 0.00 | 0.00 | 92 | 1015.1 |
| 20260901030006 | 76 | 171 | 1.0 | 2.0 | 0.00 | 0.00 | 0.00 | 92 | 1015.2 |
| 20260901025005 | 77 | 171 | 0.0 | 1.0 | 0.00 | 0.00 | 0.00 | 91 | 1014.9 |
| 20260901024506 | 77 | 171 | 1.0 | 1.0 | 0.00 | 0.00 | 0.00 | 91 | 1014.9 |
| 20260901023506 | 77 | 159 | 2.0 | 3.0 | 0.00 | 0.00 | 0.00 | 92 | 1014.7 |
| 20260901023005 | 77 | 134 | 3.0 | 3.0 | 0.00 | 0.00 | 0.00 | 92 | 1014.7 |
| 20260901021506 | 76 | 161 | 2.0 | 2.0 | 0.00 | 0.00 | 0.00 | 92 | 1014.8 |
| 20260901021005 | 76 | 161 | 1.0 | 1.0 | 0.00 | 0.00 | 0.00 | 92 | 1014.9 |
| 20260901015506 | 76 | 161 | 2.0 | 2.0 | 0.00 | 0.00 | 0.00 | 91 | 1014.6 |
| 20260901015006 | 77 | 190 | 1.0 | 2.0 | 0.00 | 0.00 | 0.00 | 90 | 1014.6 |
| 20260901014505 | 77 | 190 | 1.0 | 1.0 | 0.00 | 0.00 | 0.00 | 89 | 1014.6 |
| 20260901014005 | 78 | 190 | 0.0 | 2.0 | 0.00 | 0.00 | 0.00 | 88 | 1014.6 |
| 20260901013506 | 79 | 190 | 1.0 | 2.0 | 0.00 | 0.00 | 0.00 | 86 | 1014.6 |
| 20260901012505 | 79 | 190 | 0.0 | 2.0 | 0.00 | 0.00 | 0.00 | 87 | 1014.5 |
| 20260901012006 | 79 | 190 | 0.0 | 1.0 | 0.00 | 0.00 | 0.00 | 85 | 1014.4 |
| 20260901011505 | 80 | 190 | 1.0 | 1.0 | 0.00 | 0.00 | 0.00 | 85 | 1014.3 |
| 20260901011005 | 80 | 190 | 0.0 | 1.0 | 0.00 | 0.00 | 0.00 | 83 | 1014.2 |
| 20260901010006 | 80 | 190 | 1.0 | 2.0 | 0.00 | 0.00 | 0.00 | 83 | 1014.2 |
| 20260901005006 | 81 | 199 | 2.0 | 3.0 | 0.00 | 0.00 | 0.00 | 83 | 1014.0 |
| 20260901004505 | 81 | 173 | 3.0 | 5.0 | 0.00 | 0.00 | 0.00 | 82 | 1014.1 |
| 20260901002506 | 83 | 230 | 2.0 | 3.0 | 0.00 | 0.00 | 0.00 | 79 | 1014.1 |
| 20260901001006 | 84 | 197 | 3.0 | 3.0 | 0.00 | 0.00 | 0.00 | 77 | 1013.9 |
| 20260831233505 | 86 | 194 | 5.0 | 8.0 | 0.00 | 0.00 | 0.00 | 74 | 1013.9 |
| 20260831233006 | 87 | 191 | 5.0 | 7.0 | 0.00 | 0.00 | 0.00 | 74 | 1014.0 |
| 20260831231505 | 86 | 192 | 6.0 | 9.0 | 0.00 | 0.00 | 0.00 | 73 | 1013.9 |
| 20260831231005 | 87 | 188 | 3.0 | 7.0 | 0.00 | 0.00 | 0.00 | 72 | 1013.8 |
| 20260831225006 | 87 | 188 | 3.0 | 10.0 | 0.00 | 0.00 | 0.00 | 71 | 1013.8 |
| 20260831224505 | 87 | 195 | 6.0 | 10.0 | 0.00 | 0.00 | 0.00 | 71 | 1013.7 |
| 20260831224005 | 88 | 197 | 5.0 | 9.0 | 0.00 | 0.00 | 0.00 | 71 | 1013.7 |
| 20260831223505 | 88 | 189 | 3.0 | 9.0 | 0.00 | 0.00 | 0.00 | 71 | 1013.6 |
| 20260831223005 | 88 | 186 | 6.0 | 9.0 | 0.00 | 0.00 | 0.00 | 72 | 1013.6 |
| 20260831222005 | 87 | 193 | 4.0 | 9.0 | 0.00 | 0.00 | 0.00 | 71 | 1013.6 |
| 20260831220005 | 88 | 177 | 6.0 | 12.0 | 0.00 | 0.00 | 0.00 | 69 | 1013.4 |
| 20260831215505 | 89 | 187 | 7.0 | 12.0 | 0.00 | 0.00 | 0.00 | 68 | 1013.3 |
| 20260831213005 | 88 | 163 | 9.0 | 12.0 | 0.00 | 0.00 | 0.00 | 70 | 1013.4 |
| 20260831212005 | 88 | 169 | 5.0 | 7.0 | 0.00 | 0.00 | 0.00 | 71 | 1013.6 |
| 20260831211005 | 88 | 193 | 5.0 | 8.0 | 0.00 | 0.00 | 0.00 | 69 | 1013.7 |
| 20260831210505 | 88 | 211 | 3.0 | 6.0 | 0.00 | 0.00 | 0.00 | 69 | 1013.7 |
| 20260831205505 | 91 | 190 | 4.0 | 9.0 | 0.00 | 0.00 | 0.00 | 65 | 1013.8 |
| 20260831204504 | 91 | 196 | 3.0 | 5.0 | 0.00 | 0.01 | 0.00 | 68 | 1013.9 |
| 20260831203505 | 89 | 194 | 2.0 | 5.0 | 0.00 | 0.02 | 0.00 | 68 | 1013.7 |
| 20260831203005 | 87 | 169 | 3.0 | 6.0 | 0.00 | 0.03 | 0.00 | 69 | 1013.7 |
| 20260831202505 | 88 | 189 | 5.0 | 8.0 | 0.00 | 0.05 | 0.00 | 67 | 1014.0 |
| 20260831201505 | 91 | 171 | 3.0 | 9.0 | 0.00 | 0.11 | 0.00 | 66 | 1013.6 |
| 20260831201005 | 91 | 198 | 5.0 | 7.0 | 0.00 | 0.12 | 0.00 | 66 | 1013.6 |
| 20260831200505 | 91 | 190 | 5.0 | 8.0 | 0.00 | 0.13 | 0.00 | 65 | 1013.6 |
| 20260831200005 | 91 | 237 | 2.0 | 6.0 | 0.00 | 0.14 | 0.00 | 65 | 1013.9 |
| 20260831195505 | 91 | 225 | 3.0 | 7.0 | 0.00 | 0.16 | 0.00 | 65 | 1014.0 |
| 20260831194005 | 89 | 186 | 6.0 | 8.0 | 0.00 | 0.19 | 0.00 | 65 | 1013.9 |
| 20260831192505 | 90 | 203 | 5.0 | 8.0 | 0.00 | 0.23 | 0.00 | 65 | 1014.1 |
| 20260831191005 | 89 | 211 | 4.0 | 7.0 | 0.00 | 0.24 | 0.00 | 67 | 1014.2 |
| 20260831190005 | 90 | 181 | 5.0 | 8.0 | 0.00 | 0.24 | 0.00 | 65 | 1014.1 |
| 20260831185505 | 89 | 208 | 5.0 | 8.0 | 0.00 | 0.24 | 0.00 | 66 | 1014.1 |
| 20260831184504 | 89 | 235 | 2.0 | 6.0 | 0.00 | 0.24 | 0.00 | 65 | 1014.0 |
| 20260831183505 | 89 | 235 | 3.0 | 6.0 | 0.00 | 0.24 | 0.00 | 67 | 1013.9 |
| 20260831182005 | 87 | 189 | 4.0 | 6.0 | 0.00 | 0.24 | 0.00 | 68 | 1014.2 |
| 20260831181005 | 88 | 215 | 2.0 | 6.0 | 0.00 | 0.24 | 0.00 | 66 | 1014.2 |
| 20260831180005 | 88 | 190 | 4.0 | 6.0 | 0.00 | 0.25 | 0.00 | 64 | 1014.0 |
| 20260831175504 | 90 | 230 | 3.0 | 8.0 | 0.00 | 0.25 | 0.00 | 65 | 1014.0 |
| 20260831175005 | 89 | 283 | 7.0 | 10.0 | 0.00 | 0.25 | 0.00 | 63 | 1014.4 |
| 20260831173505 | 89 | 248 | 7.0 | 12.0 | 0.00 | 0.26 | 0.00 | 64 | 1014.6 |
| 20260831173005 | 89 | 264 | 8.0 | 12.0 | 0.00 | 0.27 | 0.00 | 65 | 1014.3 |
| 20260831172004 | 87 | 252 | 6.0 | 12.0 | 0.00 | 0.28 | 0.00 | 65 | 1014.5 |
| 20260831171505 | 87 | 242 | 7.0 | 12.0 | 0.00 | 0.28 | 0.00 | 66 | 1014.5 |
| 20260831170004 | 87 | 209 | 6.0 | 10.0 | 0.00 | 0.30 | 0.00 | 66 | 1014.5 |
| 20260831165005 | 87 | 217 | 6.0 | 9.0 | 0.00 | 0.32 | 0.00 | 65 | 1014.6 |
| 20260831164505 | 87 | 217 | 5.0 | 13.0 | 0.00 | 0.32 | 0.00 | 66 | 1014.7 |
| 20260831164004 | 86 | 228 | 8.0 | 12.0 | 0.00 | 0.33 | 0.00 | 67 | 1014.7 |
| 20260831163005 | 86 | 226 | 9.0 | 13.0 | 0.00 | 0.33 | 0.00 | 66 | 1014.7 |
| 20260831162504 | 85 | 236 | 6.0 | 15.0 | 0.00 | 0.33 | 0.00 | 67 | 1014.7 |
| 20260831161505 | 86 | 236 | 6.0 | 12.0 | 0.00 | 0.33 | 0.00 | 68 | 1014.8 |
| 20260831161005 | 84 | 224 | 7.0 | 13.0 | 0.00 | 0.33 | 0.00 | 66 | 1014.7 |
| 20260831155005 | 84 | 226 | 7.0 | 13.0 | 0.00 | 0.33 | 0.00 | 68 | 1014.4 |
| 20260831154504 | 84 | 242 | 5.0 | 14.0 | 0.00 | 0.33 | 0.00 | 69 | 1014.2 |
| 20260831153505 | 84 | 217 | 9.0 | 16.0 | 0.00 | 0.33 | 0.00 | 67 | 1014.2 |
| 20260831153004 | 83 | 216 | 8.0 | 17.0 | 0.00 | 0.33 | 0.00 | 68 | 1014.0 |
| 20260831152504 | 84 | 231 | 12.0 | 16.0 | 0.00 | 0.33 | 0.00 | 66 | 1014.1 |
| 20260831152004 | 84 | 213 | 5.0 | 14.0 | 0.00 | 0.33 | 0.00 | 70 | 1014.1 |